Location: Newark
(49.3000°N, 9.4667°E)
Time: 15:13:50
(UTC+00:00)

Transit 2A Rocket - Pass Details

Date: 19 May 2019
Orbit: 586 x 917 km, 66.7° (Epoch: 16 June)

Event Time Altitude Azimuth Distance (km) Brightness Sun altitude
Rises 22:42:47 0° 311° (NW) 3,546 9.2 -20.4°
Reaches altitude 10° 22:46:37 10° 334° (NNW) 2,571 8.8 -20.5°
Maximum altitude 22:49:56 15° 8° (N) 2,196 8.3 -20.5°
Drops below altitude 10° 22:53:08 10° 42° (NE) 2,479 8.2 -20.6°
Sets 22:56:42 0° 66° (ENE) 3,345 8.6 -20.7°
